Starlink 31801

operational
NORAD ID: 59647 Int'l Des: 2024-082 Owner: SPXS Country: US Constellation: starlink
LEOCIRCULAR

About Starlink 31801

Description loading...

Live Position

Loading 3D Globe...

Upcoming Passes

Altitude History

Altitude vs Time

uPlot chart will show altitude changes over time

Two-Line Element Set

1 59647U 24082S 25350.10529946 .00007166 00000-0 26988-3 0 9994
2 59647 43.0029 252.2875 0000807 265.7657 94.3102 15.27553481 92073
Epoch: Dec 16, 2025 • Age: 30 hours

Current Status

Altitude 483.4 km
Velocity 7.63 km/s
Sub-Earth Point 25.73°N, 173.62°E
Launch Date May 3, 2024
Age 1.6 years
Type internet

Technical Details

Classification Payload
Mass 730.00 kg
Dry Mass 700.00 kg
Total Mass 730.00 kg
Length 0.30 m
Diameter 4.10 m
Span 29.00 m
Shape Box + pan
Manufacturer SPXS
Bus Type Starlink V2M
Phase Status In Orbit
Owner/State SPXS/US

Large Constellations

Loading constellations...